Flag for Russia Weather past 2 weeks in Voronezh, Russia

Now
86 °F

Sunny.


Feels Like: 83 °F
Forecast: 67 / 82 °F
Wind: 13 mph from Southeast

Location: Voronez

Current Time: May 26, 2015 at 1:44:51 PM

Latest Report: May 26, 2015 at 1:00 PM


Visibility: 10 mi

Pressure: 29.89 "Hg

Humidity: 18%

Dew point: 37 °F

Location of VoronezhLocation

Historic Weather in Voronezh — Graph

°F

Voronezh temperature yesterday

Maximum temperature yesterday: 84 °F (at 1:00 PM)
Minimum temperature yesterday: 48 °F (at 4:00 AM)
Average temperature yesterday: 68 °F

Past Weeks' High & Low Weather Summary

 TemperatureHumidityPressure
High84 °F (May 25, 1:00 PM)94% (May 14, 10:00 PM)30.21 "Hg (May 14, 10:00 PM)
Low36 °F (May 20, 2:00 AM)15% (May 26, 12:00 PM)29.50 "Hg (May 15, 6:00 PM)
Average59 °F56%29.91 "Hg
* Reported May 11 12:00 Noon — May 26 12:30 PM, Voronezh, Weather by CustomWeather, © 2015

Note: Actual official high and low records may vary slightly from our data, if they occured in-between our weather recording intervals... More about our weather records

Advertising

Voronezh weather history for previous 24 hours

 ConditionsComfort  
Time TempWeatherWind HumidityBarometerVisibility
12:30 PM
Tue, May 26
84 °FSunny.13 mph19%29.89 "Hg10 mi
12:00 PM84 °FPassing clouds.13 mph15%29.89 "HgN/A
11:30 AM84 °FPassing clouds.8 mph16%29.89 "HgN/A
11:00 AM82 °FSunny.8 mph20%29.92 "Hg10 mi
10:30 AM82 °FPassing clouds.3 mph21%29.92 "HgN/A
10:00 AM81 °FSunny.8 mph23%29.92 "Hg10 mi
9:30 AM77 °FSunny.8 mph28%29.92 "Hg10 mi
9:00 AM75 °FSunny.6 mph36%29.92 "Hg10 mi
8:30 AM73 °FSunny.6 mph36%29.95 "Hg10 mi
8:00 AM72 °FSunny.6 mph41%29.95 "Hg10 mi
7:30 AM68 °FSunny.6 mph43%29.95 "Hg10 mi
7:00 AM66 °FSunny.3 mph46%29.95 "Hg10 mi
6:30 AM64 °FSunny.6 mph49%29.95 "Hg10 mi
6:00 AM61 °FSunny.6 mph55%29.95 "Hg10 mi
5:30 AM57 °FSunny.6 mph67%29.95 "Hg10 mi
5:00 AM55 °FClear.6 mph67%29.92 "Hg10 mi
4:30 AM54 °FClear.6 mph72%29.92 "Hg10 mi
4:00 AM52 °FClear.6 mph77%29.95 "Hg10 mi
3:30 AM55 °FClear.3 mph72%29.95 "Hg10 mi
3:00 AM55 °FClear.3 mph72%29.95 "Hg10 mi
2:30 AM57 °FClear.3 mph67%29.95 "Hg10 mi
2:00 AM59 °FClear.3 mph63%29.95 "Hg10 mi
1:30 AM54 °FClear.3 mph77%29.95 "Hg10 mi
1:00 AM59 °FClear.3 mph63%29.95 "Hg10 mi
12:00 AM61 °FClear.6 mph63%29.95 "Hg10 mi
11:30 PM
Mon, May 25
63 °FClear.3 mph64%29.95 "Hg10 mi
11:00 PM63 °FClear.1 mph64%29.95 "Hg10 mi
10:30 PM61 °FClear.1 mph68%29.95 "Hg10 mi
10:00 PM63 °FPassing clouds.1 mph59%29.95 "HgN/A
9:30 PM63 °FPassing clouds.1 mph59%29.95 "HgN/A
9:00 PM64 °FPartly sunny.No wind56%29.95 "HgN/A
8:30 PM70 °FPartly sunny.3 mph43%29.95 "HgN/A
8:00 PM70 °FPartly sunny.3 mph46%29.95 "HgN/A
7:30 PM73 °FPartly sunny.3 mph36%29.98 "HgN/A
7:00 PM75 °FPartly sunny.10 mph31%29.98 "HgN/A
6:30 PM77 °FSunny.10 mph28%29.95 "Hg10 mi
6:00 PM77 °FSunny.8 mph28%29.95 "Hg10 mi
5:30 PM79 °FSunny.8 mph23%29.95 "Hg10 mi
5:00 PM79 °FSunny.8 mph24%29.95 "Hg10 mi
4:30 PM81 °FSunny.8 mph23%29.95 "Hg10 mi
4:00 PM81 °FSunny.10 mph21%29.98 "Hg10 mi
3:30 PM82 °FSunny.10 mph20%29.95 "Hg10 mi
3:00 PM82 °FSunny.13 mph19%29.95 "Hg10 mi
2:30 PM84 °FSunny.10 mph20%29.95 "Hg10 mi
2:00 PM82 °FPassing clouds.10 mph21%29.95 "HgN/A
1:30 PM81 °FPassing clouds.3 mph24%29.98 "HgN/A
1:00 PM84 °FPassing clouds.10 mph22%29.98 "HgN/A
Weather by CustomWeather, © 2015

See weather overviewHow to use our weather pages